Location: Manchester NH
(43.0000°N, 71.5000°W)
Time: 07:24:06
(UTC-04:00)

Hubble Space Telescope - Pass Details

Date: 03 February 2022
Orbit: 533 x 536 km, 28.5° (Epoch: 28 May)

Event Time Altitude Azimuth Distance (km) Brightness Sun altitude
Rises 19:09:27 0° 233° (SW) 2,660 5.1 -23.7°
Reaches altitude 10° 19:13:40 10° 192° (SSW) 1,772 3.5 -24.4°
Enters shadow 19:14:11 10° 185° (S) 1,749 3.4 -24.5°
